183  
ASUS44 KLCH 272310  
RWRLCH  
REGIONAL WEATHER ROUNDUP  
NATIONAL WEATHER SERVICE LAKE CHARLES LA  
600 PM CDT WED OCT 27 2021  
 
NOTE: "FAIR" INDICATES FEW OR NO CLOUDS BELOW 12,000 FEET WITH NO  
SIGNIFICANT WEATHER AND/OR S TO VISIBILITY
.  
 
ACROSS SOUTHEAST TEXAS  
 
CITY SKY/WX TMP DP RH WIND PRES REMARKS
 
BEAUMONT CLEAR 72 62 71 W8 29.59R  
BEAUMONT CITY FAIR 74 59 59 W8 29.59R  
ORANGE CLEAR 75 62 63 W5 29.61R  
JASPER CLEAR 72 61 68 SW6G13 29.56R  

 
 
ACROSS CENTRAL LOUISIANA  
 
CITY SKY/WX TMP DP RH WIND PRES REMARKS
 
LEESVILLE CLEAR 68 64 86 W8 29.55R  
FULLERTON MOCLDY 68 64 87 VRB5 29.53R  
ALEXANDRIA INT CLOUDY 72 67 84 W7 29.51R  
ESLER FIELD LGT RAIN 71 69 93 S6 29.53R FOG  
DERIDDER FAIR 68 64 86 W7 29.58R  
OAKDALE CLOUDY 70 66 88 W3 29.55R  
OPELOUSAS CLOUDY 70 70 100 SW6 29.56R  

 
 
ACROSS SOUTHWEST AND SOUTH CENTRAL LOUISIANA  
 
CITY SKY/WX TMP DP RH WIND PRES REMARKS
 
DEQUINCY FAIR 70 62 76 W7 29.58R  
SULPHUR PTCLDY 70 63 77 MISG 29.60R  
LAKE CHARLES CLEAR 71 65 81 W8 29.58R  
CHENNAULT INT CLEAR 72 63 73 W12 29.57R  
JENNINGS CLOUDY 71 71 100 W7 29.56R  
LAFAYETTE CLOUDY 72 70 93 SE3 29.55R  
NEW IBERIA MOCLDY 73 71 93 S6 29.57R  
ABBEVILLE N/A 72 68 88 S3 29.57R  
PATTERSON N/A N/A N/A N/A MISG N/A THUNDER  
SALT POINT N/A 75 72 90 CALM 29.54F  

 
 
SELECTED SITES ACROSS THE REGION  
 
CITY SKY/WX TMP DP RH WIND PRES REMARKS
 
HOUSTON BUSH CLEAR 77 43 29 NW13G21 29.62R  
HOUSTON HOBBY CLEAR 79 39 23 W20G29 29.61S  
GALVESTON NOT AVBL  
COLLEGE STAT CLEAR 75 48 38 W15 29.64R  
CONROE CLEAR 73 47 39 W12 29.62R  
HUNTSVILLE CLEAR 75 46 35 W12G23 29.62R  
LUFKIN CLEAR 75 45 34 W13 29.56S  
SHREVEPORT PTCLDY 73 59 61 W8 29.51R  
MONROE CLOUDY 72 71 97 S8 29.49F  
NATCHEZ MS MOCLDY 69 68 96 SE7 29.54F  
BATON ROUGE LGT RAIN 70 69 97 NE5 29.54F  
N.O. INTL ARPT TSTM 80 77 90 W15G29 29.61R FOG  
SLIDELL LGT RAIN 80 76 87 S10G18 29.59S  

 
 
MARINE REPORTS  
 
STATION/POSITION TIME SKY/WX TEMP WIND PRES VSBY
 
AIR SEA DIR/SP/G  
(UTC) (F) (DEG/KT/KT) (MB) (MI)  
BUOY 30 S HIGH I 2250 77 280/ 17/ 21 1002.3F  
SEA RIM ST PARK 2200 74 290/ 13/ 17 1002.1R  
PORT ARTHUR 2230 74 79 260/ 10/ 14 1001.8R  
TEXAS POINT 2230 73 79 280/ 13/ 18 1000.9R  
CALCASIEU PASS 2230 72 78 290/ 14/ 17 999.5R  
LK CHARLES BEACH 2230 71 79 1001.1R  
MARSH ISLAND NOT AVBL  
FRESH WATER LOCK NOT AVBL  
AMERADA PASS 2230 75 80 270/ 3/ 6 1000.2F  

 
 
 
CLICK HERE TO GO TO PREVIOUS BULLETINS.

The Nexlab LA Page
The Nexlab TX Page Main Text Page